Cloud_Cover
0 0 0 0 0 0 0 0 0 0 0 0 0 0 0 0 0 50 44 1 37 100 100 0 0 0 0 0 0 4 49 10 5 5 5 95 67 5 5 0 0 0 0 10 12 12 1 9 36
0 0 0 0 0 0 0 0 0 0 0 0 0 0 0 0 0 22 63 0 22 100 100 23 0 0 0 0 0 0 2 60 79 12 3 14 19 5 6 5 0 0 0 1 6 0 5 5 1
0 0 0 0 0 0 0 0 0 0 0 0 0 0 0 0 0 0 0 0 43 99 59 99 38 9 0 0 0 0 3 5 3 22 5 32 5 10 13 6 5 4 1 5 4 4 5 5 6
0 0 0 0 0 0 0 0 0 0 0 0 0 0 0 0 0 0 0 0 84 91 58 99 0 0 0 0 0 0 0 4 4 0 0 5 5 5 12 4 5 5 5 5 5 5 5 5 23
3 1 5 5 3 0 0 0 0 0 0 0 0 0 0 0 0 0 0 0 67 94 99 42 2 4 0 0 0 0 0 0 0 0 0 2 0 5 5 5 5 15 7 72 72 82 84 100 100
48 2 5 48 4 5 1 0 0 0 0 0 0 0 0 0 0 0 0 0 15 100 99 15 8 0 0 0 0 0 1 0 0 0 0 0 5 5 5 5 36 100 98 100 100 93 16 8 59
57 94 66 44 6 18 4 0 0 3 5 4 1 0 0 0 0 0 0 0 25 96 92 97 66 0 0 0 0 20 100 95 99 98 6 0 0 1 5 5 5 5 8 12 62 90 100 100 87
100 75 100 100 19 45 21 5 0 0 0 3 0 1 5 2 0 0 0 0 0 20 44 40 93 80 4 0 0 0 2 34 53 48 87 8 1 0 0 4 11 7 31 40 65 62 63 93 100
100 94 100 72 99 100 98 92 58 9 5 5 5 5 60 6 5 5 5 5 0 0 0 1 47 100 100 45 3 0 0 4 54 54 10 53 95 19 20 52 60 99 86 96 94 82 91 70 60
100 56 15 85 57 71 67 100 100 100 80 25 43 91 97 10 5 5 16 13 5 0 0 0 0 10 38 79 96 93 1 0 3 21 94 100 80 55 57 68 14 4 3 2 4 9 31 86 90
100 100 92 24 19 88 80 64 61 80 100 100 100 100 100 100 95 75 38 28 5 5 4 0 0 0 0 2 0 36 98 0 3 5 18 100 100 100 100 53 5 5 12 12 0 0 0 0 3
100 100 87 5 5 5 5 5 96 100 86 13 17 25 5 9 15 5 5 5 42 48 5 5 0 0 0 11 4 11 100 33 0 4 19 48 98 100 100 100 56 57 10 100 58 7 3 0 11
35 60 100 100 17 5 3 4 5 11 86 11 26 12 2 0 0 2 5 5 4 5 0 0 4 0 0 0 45 0 0 0 2 17 55 5 63 100 100 100 100 14 6 100 100 66 14 5 4
100 83 5 65 100 100 80 4 1 0 0 2 3 5 5 2 0 0 0 0 0 0 0 0 0 0 0 0 3 0 0 76 81 53 3 5 64 100 100 100 100 85 84 82 100 79 36 81 30
100 100 84 76 46 7 78 100 67 5 0 0 0 5 5 5 2 0 0 0 0 0 0 0 0 0 0 0 0 0 0 0 96 100 0 0 100 100 68 100 100 100 83 74 97 100 100 52 12
100 80 100 100 17 22 51 29 5 5 5 5 5 14 6 5 5 0 0 0 0 0 0 0 0 0 0 0 0 0 0 0 0 52 1 0 2 5 8 29 91 74 90 15 98 100 100 100 31
51 91 89 60 5 1 2 5 0 1 5 4 2 0 3 7 3 5 9 5 0 3 3 2 0 0 0 0 0 0 0 0 0 4 37 0 62 84 65 56 8 68 69 70 27 46 30 61 6
84 46 5 1 1 0 0 0 0 0 0 0 0 0 0 0 0 0 1 1 3 1 0 0 0 0 0 0 0 0 0 0 0 35 64 7 16 99 49 12 11 20 41 7 62 96 95 82 88
40 5 5 5 4 5 5 0 5 1 0 0 0 0 0 0 1 0 0 0 0 0 0 0 0 0 0 0 0 0 0 0 0 0 2 37 0 0 5 4 0 1 6 72 9 46 100 100 90
5 5 9 5 5 3 0 0 0 11 9 10 11 0 0 0 0 0 0 2 0 0 0 0 0 0 0 0 0 0 0 0 0 2 61 4 17 21 5 0 0 0 3 5 5 5 53 50 6
17 5 5 4 2 2 4 5 38 15 13 50 25 28 1 27 5 0 0 0 0 0 0 0 0 0 0 0 0 0 0 0 0 0 0 100 24 100 100 34 40 1 0 6 61 24 5 32 5
95 98 29 5 3 5 1 37 2 3 44 12 12 4 0 81 2 30 68 76 25 0 0 0 0 0 0 0 0 0 0 0 0 0 0 1 100 60 20 1 30 14 6 1 9 18 27 7 18
3 0 0 4 18 82 3 21 4 24 2 0 0 59 98 40 100 100 100 100 100 72 0 0 0 0 0 0 0 0 0 0 0 0 0 0 0 43 50 6 39 1 0 4 1 6 28 21 78
0 1 24 82 83 58 5 6 4 2 2 0 2 99 94 81 100 100 98 98 87 100 89 89 8 3 0 0 0 0 0 0 0 0 0 0 0 0 69 2 12 12 76 74 20 14 20 28 43
39 19 76 66 99 11 5 5 2 0 0 0 58 7 14 94 100 100 100 100 100 100 70 94 72 81 28 2 2 0 0 0 0 0 0 0 0 0 17 37 78 58 46 60 99 23 41 57 59
100 91 90 72 76 48 2 6 2 0 1 5 6 38 71 100 100 100 100 100 100 100 100 56 100 100 71 86 5 3 0 0 0 0 0 0 0 1 0 1 12 0 63 52 90 61 32 48 59
97 97 94 56 10 98 3 47 17 79 65 99 99 51 100 100 100 100 100 100 100 100 100 100 98 100 100 83 59 61 27 15 21 0 2 44 3 60 100 96 99 100 99 100 100 61 56 100 100
58 67 85 88 85 87 100 89 100 100 100 100 100 100 100 100 63 100 100 100 100 100 100 100 100 100 100 92 81 77 68 19 35 36 99 100 90 34 87 100 80 78 95 100 100 100 100 100 100
73 89 84 96 100 100 100 100 100 100 100 100 100 100 100 85 76 87 100 100 100 100 100 100 100 100 100 100 100 99 100 100 100 100 100 100 92 96 100 100 100 100 100 98 100 100 100 100 100
100 100 100 100 100 100 100 100 100 82 100 100 100 100 32 100 61 10 81 100 100 100 100 100 100 100 100 100 100 100 100 100 100 100 100 100 100 100 100 100 100 100 80 100 100 100 100 100 100